Bedford Park, IL

9:35 AM CDT on August 27, 2016 (GMT -0500)
Chicago-Midway

Weather History for KMDW - May, 2014

Change the Weather History Date:

Saturday, May 3, 2014

  Actual Average Record
Temperature  
Mean Temperature 59 °F 57 °F  
Max Temperature 68 °F 66 °F 92 °F (1955)
Min Temperature 49 °F 48 °F 32 °F (1971)
Degree Days  
Heating Degree Days 6 9  
Month to date heating degree days 38 28  
Since 1 July heating degree days 6684 5799  
Cooling Degree Days 0 1  
Month to date cooling degree days 0 3  
Year to date cooling degree days 5 16  
Growing Degree Days 8 (Base 50)    
Moisture  
Dew Point 39 °F    
Average Humidity 50    
Maximum Humidity 80    
Minimum Humidity 20    
Precipitation  
Precipitation 0.00 in 0.13 in 0.76 in (1935)
Month to date precipitation 0.13 0.37  
Year to date precipitation 6.96 10.73  
Sea Level Pressure  
Sea Level Pressure 29.76 in    
Wind  
Wind Speed 14 mph (West)    
Max Wind Speed 26 mph    
Max Gust Speed 35 mph    
Visibility 10 miles    
Events      
T = Trace of Precipitation, MM = Missing Value Source: NWS Daily Summary

Daily Weather History Graph

Daily Weather History Graph

Search for Another Location

Airport or City:

Trip Planner

Search our weather history database for the weather conditions in past years. The results will help you decide how hot, cold, wet, or windy it might be!

Date:

Astronomy

May. 03, 2014 Rise Set
Actual Time 5:44 AM CDT 7:51 PM CDT
Civil Twilight 5:14 AM CDT 8:22 PM CDT
Nautical Twilight 4:36 AM CDT 8:59 PM CDT
Astronomical Twilight 3:56 AM CDT 9:41 PM CDT
Moon 9:13 AM CDT (5/3) 11:58 PM CDT (5/3)
Length of Visible Light 15h 07m
Length of Day
14h 06m
Waxing Crescent, 20% of the Moon is Illuminated
May 3
Waxing Crescent
May 6
First Quarter
May 14
Full
May 21
Last Quarter
May 28
New

Hourly Weather History & Observations

Time (CDT) Temp. Dew Point Humidity Pressure Visibility Wind Dir Wind Speed Gust Speed Precip Events Conditions
12:51 AM 51.1 °F 44.1 °F 77% 29.67 in 10.0 mi SSW 15.0 mph - 0.00 in   Mostly Cloudy
1:51 AM 51.1 °F 43.0 °F 74% 29.66 in 10.0 mi SSW 11.5 mph - N/A   Partly Cloudy
2:51 AM 51.1 °F 43.0 °F 74% 29.65 in 10.0 mi SW 13.8 mph - N/A   Partly Cloudy
3:51 AM 51.1 °F 44.1 °F 77% 29.66 in 10.0 mi WSW 12.7 mph - N/A   Mostly Cloudy
4:51 AM 48.9 °F 43.0 °F 80% 29.67 in 10.0 mi WSW 10.4 mph - N/A   Mostly Cloudy
5:51 AM 48.9 °F 43.0 °F 80% 29.68 in 10.0 mi West 11.5 mph - N/A   Partly Cloudy
6:51 AM 48.9 °F 43.0 °F 80% 29.71 in 10.0 mi West 12.7 mph - N/A   Partly Cloudy
7:51 AM 51.1 °F 44.1 °F 77% 29.73 in 10.0 mi West 10.4 mph 20.7 mph N/A   Scattered Clouds
8:51 AM 55.0 °F 44.1 °F 67% 29.75 in 10.0 mi WNW 16.1 mph 23.0 mph N/A   Partly Cloudy
9:51 AM 59.0 °F 44.1 °F 58% 29.76 in 10.0 mi West 15.0 mph 23.0 mph N/A   Partly Cloudy
10:51 AM 62.1 °F 37.9 °F 41% 29.77 in 10.0 mi WNW 16.1 mph - N/A   Scattered Clouds
11:51 AM 64.0 °F 36.0 °F 35% 29.78 in 10.0 mi WNW 16.1 mph 31.1 mph N/A   Scattered Clouds
12:51 PM 64.9 °F 36.0 °F 34% 29.79 in 10.0 mi WNW 16.1 mph 35.7 mph N/A   Scattered Clouds
1:51 PM 66.9 °F 35.1 °F 31% 29.80 in 10.0 mi West 24.2 mph 31.1 mph N/A   Mostly Cloudy
2:51 PM 64.9 °F 35.1 °F 33% 29.80 in 10.0 mi West 18.4 mph 34.5 mph N/A   Mostly Cloudy
3:51 PM 66.9 °F 35.1 °F 31% 29.80 in 10.0 mi West 21.9 mph 28.8 mph N/A   Mostly Cloudy
4:51 PM 66.0 °F 35.1 °F 32% 29.80 in 10.0 mi WNW 16.1 mph 25.3 mph N/A   Mostly Cloudy
5:51 PM 68.0 °F 35.1 °F 30% 29.81 in 10.0 mi West 19.6 mph 28.8 mph N/A   Mostly Cloudy
6:51 PM 66.2 °F 35.6 °F 32% 29.81 in 10.0 mi West 17.3 mph 27.6 mph N/A   Mostly Cloudy
7:51 PM 64.9 °F 37.9 °F 37% 29.82 in 10.0 mi West 9.2 mph - N/A   Mostly Cloudy
8:51 PM 64.9 °F 37.0 °F 36% 29.84 in 10.0 mi West 10.4 mph - N/A   Mostly Cloudy
9:51 PM 64.0 °F 37.0 °F 37% 29.85 in 10.0 mi WNW 8.1 mph - N/A   Overcast
10:51 PM 62.1 °F 36.0 °F 38% 29.86 in 10.0 mi WNW 11.5 mph - N/A   Overcast
11:51 PM 62.1 °F 35.1 °F 37% 29.86 in 10.0 mi WNW 10.4 mph - N/A   Overcast